Location: Fort Wayne
(41.1310°N, 85.1290°W)
Time: 14:51:25
(UTC-05:00)

IDEFIX/ARIANE 42P - Visible Passes

Search period start: 22 December 2014 00:00
Search period end: 01 January 2015 00:00
Orbit: 785 x 804 km, 98.3° (Epoch: 22 December)

Date Brightness Start Highest point End Pass type
(mag) Time Alt. Az. Time Alt. Az. Time Alt. Az.
26 Dec 6.0 07:23:25 10° E 07:23:39 10° E 07:23:53 10° E visible
27 Dec 5.0 19:59:20 10° N 19:59:20 10° N 19:59:22 10° N visible
28 Dec 4.8 19:30:41 11° N 19:30:41 11° N 19:30:56 10° N visible
29 Dec 4.7 19:02:00 11° NNE 19:02:00 11° NNE 19:02:09 10° NNE visible
30 Dec 5.0 20:14:08 12° NNW 20:14:08 12° NNW 20:14:27 10° NNW visible
31 Dec 4.7 19:45:27 14° N 19:45:27 14° N 19:46:09 10° N visible
